Header for Extended Forecast Station List Page

Search by: ID | Name | Date | Parm | Value | Avg | % Avg
Sort by: ID | Name | Date | Parm | Value | Avg | % Avg

Enter search or view all records.

Click on id for station plot
#IDNameDateParmValueAvg% Avg
0LWRI1LITTLE WOOD-LITTLE WOOD DAM02-18-2020INFLOW (KAF)386756
1MAGI1BIG WOOD-MAGIC DAM02-18-2020INFLOW (KAF)11920658
2MACI1BIG LOST-MACKAY RESERVOIR NEAR MACKAY02-18-2020INFLOW (KAF)729775
3HALI1BIG WOOD-AT HAILEY02-18-2020DISCHARGE (KAF)12115877
4EMMI1PAYETTE-NEAR EMMETT02-18-2020DISCHARGE (KAF)842109577
5LEOI1KOOTENAI-AT LEONIA02-18-2020DISCHARGE (KAF)2924367480
6WEII1SNAKE-AT WEISER02-18-2020DISCHARGE (KAF)4337533281
7HWRI1BIG LOST-AT HOWELL RANCH NEAR CHILLY02-18-2020DISCHARGE (KAF)809683
8MILI1SNAKE-AT MILNER02-18-2020DISCHARGE (KAF)54664784
9BRNI1SNAKE-BROWNLEE DAM02-18-2020INFLOW (KAF)4848576684
10PIHI1PORTNEUF-AT POCATELLO02-18-2020DISCHARGE (KAF)8510185
11SWAI1SNAKE-BELOW SWAN FALLS02-18-2020DISCHARGE (KAF)2288267985
12ARAI1SF BOISE-ANDERSON RANCH DAM02-18-2020INFLOW (KAF)36943285
13BERO3MALHEUR-AGENCY VALLEY DAM02-18-2020INFLOW (KAF)445285
14ANAW1SNAKE-NEAR ANATONE02-18-2020DISCHARGE (KAF)104621225885
15WHBI1SALMON-AT WHITEBIRD02-18-2020DISCHARGE (KAF)3710428487
16NOXM8CLARK FORK-NOXON RAPIDS DAM02-18-2020INFLOW (KAF)6581730590
17MODO3DESCHUTES-AT MOODY NR BIGGS02-18-2020DISCHARGE (KAF)1394153891
18PITW1KLICKITAT-NEAR PITT02-18-2020DISCHARGE (KAF)48853092
19STRM8ST. REGIS-NEAR ST. REGIS02-18-2020DISCHARGE (KAF)21623393
20LGDW1SNAKE-LOWER GRANITE DAM02-18-2020INFLOW (KAF)172671856493
21LGSW1SNAKE-LITTLE GOOSE DAM02-18-2020INFLOW (KAF)172671860293
22LMNW1SNAKE-LOWER MONUMENTAL DAM02-18-2020INFLOW (KAF)174431881293
23IHDW1SNAKE-ICE HARBOR DAM02-18-2020INFLOW (KAF)174431867793
24LLKW1SPOKANE-AT LONGLAKE02-18-2020INFLOW (KAF)3171338194
25PARI1BOISE-NEAR PARMA02-18-2020DISCHARGE (KAF)39241894
26CABI1CLARK FORK-CABINET GORGE DAM02-18-2020INFLOW (KAF)7268766195
27ALFW1PEND OREILLE-ALBENI FALLS DAM02-18-2020INFLOW (KAF)8784925495
28UNDW1WHITE SALMON-NEAR UNDERWOOD02-18-2020DISCHARGE (KAF)33835795
29CSDI1NF PAYETTE-CASCADE DAM02-18-2020INFLOW (KAF)42144096
30DEDI1DEADWOOD-NEAR LOWMAN02-18-2020INFLOW (KAF)9910396
31SRGM8CLARK FORK-AT ST REGIS02-18-2020DISCHARGE (KAF)2744281098
32GCDW1COLUMBIA-GRAND COULEE DAM02-18-2020INFLOW (KAF)291812985698
33HODO3HOOD-NEAR TUCKER BRIDGE02-18-2020DISCHARGE (KAF)27027499
34DLGM8CLARK FORK-AT DEER LODGE02-18-2020DISCHARGE (KAF)8181100
35BIGI1BOISE-AT GLENWOOD BRIDGE02-18-2020DISCHARGE (KAF)352348101
36LYDM8KOOTENAI-LIBBY DAM02-18-2020INFLOW (KAF)36233559102
37ARDW1ENTIAT-NEAR ARDENVOIR02-18-2020DISCHARGE (KAF)138135102
38MCDW1COLUMBIA-MCNARY DAM02-18-2020INFLOW (KAF)5397352823102
39JDAO3COLUMBIA-JOHN DAY DAM02-18-2020INFLOW (KAF)5651155399102
40WSRI1WEISER-NEAR WEISER02-18-2020DISCHARGE (KAF)451436103
41BITM8BITTERROOT-NEAR MISSOULA02-18-2020DISCHARGE (KAF)956918104
42BONO3COLUMBIA-BONNEVILLE DAM02-18-2020INFLOW (KAF)5797055806104
43COEI1COEUR D ALENE-COEUR D ALENE LAKE02-18-2020INFLOW (KAF)29732805106
44KIOW1YAKIMA-AT KIONA02-18-2020DISCHARGE (KAF)10831023106
45JLKW4SNAKE-JACKSON LAKE AT DAM02-18-2020INFLOW (KAF)545514106
46SERO3JOHN DAY-AT SERVICE CK02-18-2020DISCHARGE (KAF)953901106
47PESW1WENATCHEE-AT PESHASTIN02-18-2020DISCHARGE (KAF)11331054107
48TDAO3COLUMBIA-THE DALLES DAM02-18-2020INFLOW (KAF)5689253399107
49BELM8CLARK FORK-BELOW MISSOULA02-18-2020DISCHARGE (KAF)22172060108
50SATI1ST MARIES-NEAR SANTA02-18-2020DISCHARGE (KAF)163151108
51TONW1OKANOGAN-NEAR TONASKET02-18-2020DISCHARGE (KAF)12081121108
52SPDI1CLEARWATER-AT SPALDING02-18-2020DISCHARGE (KAF)68056310108
53KERM8FLATHEAD-KERR DAM02-18-2020INFLOW (KAF)43463990109
54PATW1METHOW-NEAR PATEROS02-18-2020DISCHARGE (KAF)676621109
55ANTI1HENRYS FORK-AT ST. ANTHONY02-18-2020DISCHARGE (KAF)649594109
56RCCM8ROCK CREEK-NEAR CLINTON02-18-2020DISCHARGE (KAF)203184110
57PRWW1COLUMBIA-PRIEST RAPIDS DAM02-18-2020INFLOW (KAF)3530632011110
58IPDI1HENRYS FORK-ISLAND PARK DAM02-18-2020INFLOW (KAF)194176110
59WRMO3MALHEUR-WARM SPRINGS DAM02-18-2020INFLOW (KAF)7971110
60DWRI1NF CLEARWATER-DWORSHAK DAM02-18-2020INFLOW (KAF)27912527110
61FCFM8NF FLATHEAD-NEAR COLUMBIA FALLS02-18-2020DISCHARGE (KAF)12631135111
62HHWM8SF FLATHEAD-HUNGRY HORSE DAM02-18-2020INFLOW (KAF)16581478112
63ABOM8CLARK FORK-ABOVE MISSOULA02-18-2020DISCHARGE (KAF)12601123112
64WANW1COLUMBIA-WANAPUM DAM02-18-2020INFLOW (KAF)3531331503112
65UMTW1YAKIMA-AT UMTANUM02-18-2020DISCHARGE (KAF)697624112
66MONO3NF JOHN DAY-AT MONUMENT02-18-2020DISCHARGE (KAF)697625112
67RILW1TIETON-RIMROCK LAKE NEAR RIMROCK02-18-2020INFLOW (KAF)174153113
68CHEI1FALL RIVER-NEAR CHESTER02-18-2020DISCHARGE (KAF)318281113
69HOTI1BRUNEAU-NEAR HOT SPRINGS02-18-2020DISCHARGE (KAF)185164113
70WGCM8MF FLATHEAD-NEAR WEST GLACIER02-18-2020DISCHARGE (KAF)12571103114
71REXI1HENRYS FORK-AT REXBURG02-18-2020DISCHARGE (KAF)789693114
72CHJW1COLUMBIA-CHIEF JOSEPH DAM02-18-2020INFLOW (KAF)3172427500115
73WELW1COLUMBIA-WELLS DAM02-18-2020INFLOW (KAF)3358529314115
74RRHW1COLUMBIA-ROCKY REACH DAM02-18-2020INFLOW (KAF)3420029776115
75KADW1KACHESS-KACHESS DAM02-18-2020INFLOW (KAF)11499115
76CLUW1CLE ELUM-CLE ELUM LAKE02-18-2020INFLOW (KAF)355309115
77PRTI1PRIEST-NEAR PRIEST RIVER02-18-2020DISCHARGE (KAF)809697116
78PLDI1SF SNAKE-PALISADES DAM02-18-2020INFLOW (KAF)22161907116
79ORFI1CLEARWATER-AT OROFINO02-18-2020DISCHARGE (KAF)46904028116
80BONM8BLACKFOOT-NEAR BONNER02-18-2020DISCHARGE (KAF)733615119
81CHDW1CHELAN-LAKE CHELAN DAM02-18-2020INFLOW (KAF)814685119
82KEDW1YAKIMA-KEECHELUS LAKE02-18-2020INFLOW (KAF)124104119
83TNAW1TEANAWAY-BELOW FORKS02-18-2020DISCHARGE (KAF)157132119
84CFMM8FLATHEAD-AT COLUMBIA FALLS02-18-2020DISCHARGE (KAF)37703144120
85ALPW4SNAKE-NEAR ALPINE02-18-2020DISCHARGE (KAF)14891232121
86TEAI1TETON-NEAR ST. ANTHONY02-18-2020DISCHARGE (KAF)306246124
87OWYO3OWYHEE-OWYHEE DAM02-18-2020INFLOW (KAF)447361124
88JKSW4SNAKE-NEAR JACKSON02-18-2020DISCHARGE (KAF)1170932126
89EASW1YAKIMA-AT EASTON02-18-2020DISCHARGE (KAF)127100127
90CLFW1NACHES-NEAR CLIFFDEL02-18-2020DISCHARGE (KAF)399314127
91BUDW1BUMPING-BUMPING LAKE DAM02-18-2020INFLOW (KAF)11992129
92PARW1YAKIMA-NEAR PARKER02-18-2020DISCHARGE (KAF)829645129
93AFRI1SNAKE-AMERICAN FALLS RESERVOIR02-18-2020INFLOW (KAF)29342277129
94LAUW1KETTLE-AT LAURIER02-18-2020DISCHARGE (KAF)19051417134
95GIBO3UMATILLA-NEAR GIBBON02-18-2020DISCHARGE (KAF)11783140
96TRYO3GRANDE RONDE-TROY02-18-2020DISCHARGE (KAF)17221221141
97TCHW1WALLA WALLA-NEAR TOUCHET02-18-2020DISCHARGE (KAF)271193141
98SHYI1SNAKE-NEAR SHELLEY02-18-2020DISCHARGE (KAF)26691875142
99HEII1SNAKE-NEAR HEISE02-18-2020DISCHARGE (KAF)26981861145
100SNAI1SNAKE-AT BLACKFOOT02-18-2020DISCHARGE (KAF)23791624146
101BFTI1SNAKE-NEAR BLACKFOOT02-18-2020DISCHARGE (KAF)23461606146
102BULO3BULLY CREEK-BULLY CREEK DAM02-18-2020INFLOW (KAF)128146
103PDTO3UMATILLA-AT PENDLETON02-18-2020DISCHARGE (KAF)274188146
104SIFI1SNAKE-AB EAGLE ROCK NR IDAHO FALLS02-18-2020DISCHARGE (KAF)27881885148
105RIDI1WILLOW CREEK-RIRIE DAM02-18-2020INFLOW (KAF)6443149
106NACW1NACHES-NEAR NACHES02-18-2020DISCHARGE (KAF)600400150
107MYKO3MCKAY CREEK-NEAR PILOT ROCK02-18-2020DISCHARGE (KAF)5936164
108UMAO3UMATILLA-NEAR UMATILLA02-18-2020DISCHARGE (KAF)291149196
109BFEI1KOOTENAI-AT BONNERS FERRY02-18-2020STAGE (FT)MMM
110DRMM8CLARK FORK-NR DRUMMOND02-18-2020DISCHARGE (KAF)279MM
111HOPI1PEND OREILLE-PEND OREILLE LAKE NR HOPE02-18-2020LAKE ELEVATION (FT)MMM
112SPOW1SPOKANE-AT SPOKANE02-18-2020DISCHARGE (KAF)2828MM
113SJMI1ST JOE-AT ST MARIES02-18-2020STAGE (FT)MMM
114CIBW1COLUMBIA-AT INTL BOUNDARY02-18-2020DISCHARGE (KAF)23924MM
115LUCI1BOISE-LUCKY PEAK DAM02-18-2020INFLOW (KAF)991MM